Time,TemperatureF,DewpointF,PressureIn,WindDirection,WindDirectionDegrees,WindSpeedMPH,WindSpeedGustMPH,Humidity,HourlyPrecipIn,Conditions,Clouds,dailyrainin,SoftwareType,DateUTC
2013-11-29 00:12:00,34.0,29.0,30.12,ESE,123,0.0,0.0,81,0.00,,,0.00,,2013-11-29 05:12:00,
2013-11-29 00:22:00,34.0,28.0,30.12,ESE,123,0.0,0.0,80,0.00,,,0.00,,2013-11-29 05:22:00,
2013-11-29 00:43:00,34.0,28.0,30.12,ESE,123,0.0,0.0,79,0.00,,,0.00,,2013-11-29 05:43:00,
2013-11-29 00:53:00,34.0,28.0,30.12,ESE,123,0.0,0.0,80,0.00,,,0.00,,2013-11-29 05:53:00,
2013-11-29 01:12:00,33.0,28.0,30.11,ESE,123,0.0,0.0,81,0.00,,,0.00,,2013-11-29 06:12:00,
2013-11-29 01:22:00,33.0,28.0,30.11,ESE,123,0.0,0.0,81,0.00,,,0.00,,2013-11-29 06:22:00,
2013-11-29 01:42:00,33.0,28.0,30.11,ESE,123,0.0,0.0,81,0.00,,,0.00,,2013-11-29 06:42:00,
2013-11-29 01:52:00,33.0,28.0,30.12,ESE,123,0.0,0.0,81,0.00,,,0.00,,2013-11-29 06:52:00,
2013-11-29 02:12:00,34.0,28.0,30.11,ESE,123,0.0,0.0,80,0.00,,,0.00,,2013-11-29 07:12:00,
2013-11-29 02:21:00,34.0,28.0,30.11,ESE,123,0.0,1.0,79,0.00,,,0.00,,2013-11-29 07:21:00,
2013-11-29 02:42:00,35.0,29.0,30.11,ESE,123,0.0,1.0,77,0.00,,,0.00,,2013-11-29 07:42:00,
2013-11-29 02:52:00,34.0,28.0,30.11,ESE,123,0.0,1.0,77,0.00,,,0.00,,2013-11-29 07:52:00,
2013-11-29 03:11:00,33.0,28.0,30.11,ESE,123,0.0,0.0,80,0.00,,,0.00,,2013-11-29 08:11:00,
2013-11-29 03:21:00,33.0,28.0,30.11,ESE,123,0.0,1.0,80,0.00,,,0.00,,2013-11-29 08:21:00,
2013-11-29 03:42:00,33.0,28.0,30.11,ESE,123,0.0,0.0,80,0.00,,,0.00,,2013-11-29 08:42:00,
2013-11-29 03:53:00,33.0,27.0,30.11,ESE,123,0.0,0.0,79,0.00,,,0.00,,2013-11-29 08:53:00,
2013-11-29 04:11:00,33.0,27.0,30.12,ESE,123,0.0,1.0,79,0.00,,,0.00,,2013-11-29 09:11:00,
2013-11-29 04:22:00,33.0,27.0,30.12,ESE,123,0.0,1.0,78,0.00,,,0.00,,2013-11-29 09:22:00,
2013-11-29 04:43:00,33.0,27.0,30.12,ESE,123,0.0,1.0,79,0.00,,,0.00,,2013-11-29 09:43:00,
2013-11-29 04:52:00,32.0,27.0,30.12,ESE,123,0.0,0.0,81,0.00,,,0.00,,2013-11-29 09:52:00,
2013-11-29 05:13:00,32.0,27.0,30.12,ESE,123,0.0,0.0,80,0.00,,,0.00,,2013-11-29 10:13:00,
2013-11-29 05:23:00,31.0,26.0,30.12,ESE,123,0.0,0.0,81,0.00,,,0.00,,2013-11-29 10:23:00,
2013-11-29 05:42:00,31.0,26.0,30.12,ESE,123,0.0,0.0,83,0.00,,,0.00,,2013-11-29 10:42:00,
2013-11-29 05:52:00,30.0,26.0,30.12,ESE,123,0.0,0.0,85,0.00,,,0.00,,2013-11-29 10:52:00,
2013-11-29 06:12:00,30.0,27.0,30.13,ESE,123,0.0,0.0,87,0.00,,,0.00,,2013-11-29 11:12:00,
2013-11-29 06:22:00,29.0,26.0,30.13,ESE,123,0.0,0.0,87,0.00,,,0.00,,2013-11-29 11:22:00,
2013-11-29 06:42:00,29.0,26.0,30.13,ESE,123,0.0,0.0,88,0.00,,,0.00,,2013-11-29 11:42:00,
2013-11-29 06:52:00,29.0,26.0,30.13,ESE,123,0.0,0.0,89,0.00,,,0.00,,2013-11-29 11:52:00,
2013-11-29 07:12:00,29.0,26.0,30.13,ESE,123,0.0,0.0,89,0.00,,,0.00,,2013-11-29 12:12:00,
2013-11-29 07:22:00,29.0,26.0,30.13,ESE,123,0.0,0.0,89,0.00,,,0.00,,2013-11-29 12:22:00,
2013-11-29 07:42:00,29.0,26.0,30.13,ESE,123,0.0,0.0,89,0.00,,,0.00,,2013-11-29 12:42:00,
2013-11-29 07:52:00,29.0,26.0,30.14,ESE,123,0.0,0.0,89,0.00,,,0.00,,2013-11-29 12:52:00,
2013-11-29 08:11:00,29.0,26.0,30.14,ESE,123,0.0,0.0,89,0.00,,,0.00,,2013-11-29 13:11:00,
2013-11-29 08:22:00,29.0,26.0,30.15,ESE,123,0.0,0.0,89,0.00,,,0.00,,2013-11-29 13:22:00,
2013-11-29 08:42:00,29.0,26.0,30.15,ESE,123,0.0,0.0,89,0.00,,,0.00,,2013-11-29 13:42:00,
2013-11-29 08:52:00,29.0,26.0,30.15,ESE,123,0.0,0.0,90,0.00,,,0.00,,2013-11-29 13:52:00,
2013-11-29 09:11:00,30.0,27.0,30.15,ESE,123,0.0,1.0,90,0.00,,,0.00,,2013-11-29 14:11:00,
2013-11-29 09:22:00,32.0,29.0,30.15,ESE,123,1.0,3.0,89,0.00,,,0.00,,2013-11-29 14:22:00,
2013-11-29 09:42:00,34.0,31.0,30.16,SE,126,1.0,3.0,88,0.00,,,0.00,,2013-11-29 14:42:00,
2013-11-29 09:52:00,36.0,33.0,30.17,SE,143,0.0,5.0,87,0.00,,,0.00,,2013-11-29 14:52:00,
2013-11-29 10:11:00,39.0,35.0,30.18,SE,132,2.0,6.0,86,0.00,,,0.00,,2013-11-29 15:11:00,
2013-11-29 10:22:00,40.0,36.0,30.18,South,181,3.0,9.0,84,0.00,,,0.00,,2013-11-29 15:22:00,
2013-11-29 10:43:00,41.0,36.0,30.18,ESE,114,2.0,7.0,83,0.00,,,0.00,,2013-11-29 15:43:00,
2013-11-29 10:53:00,43.0,38.0,30.18,SSE,167,2.0,8.0,81,0.00,,,0.00,,2013-11-29 15:53:00,
2013-11-29 11:13:00,44.0,38.0,30.18,SSE,153,3.0,6.0,79,0.00,,,0.00,,2013-11-29 16:13:00,
2013-11-29 11:23:00,46.0,40.0,30.17,South,170,2.0,9.0,78,0.00,,,0.00,,2013-11-29 16:23:00,
2013-11-29 11:42:00,47.0,41.0,30.17,SSE,168,3.0,8.0,78,0.00,,,0.00,,2013-11-29 16:42:00,
2013-11-29 11:53:00,49.0,42.0,30.17,SSE,161,5.0,9.0,77,0.00,,,0.00,,2013-11-29 16:53:00,
2013-11-29 12:12:00,50.0,42.0,30.17,SSE,155,2.0,7.0,75,0.00,,,0.00,,2013-11-29 17:12:00,
2013-11-29 12:22:00,51.0,42.0,30.16,South,186,4.0,10.0,72,0.00,,,0.00,,2013-11-29 17:22:00,
2013-11-29 12:43:00,53.0,43.0,30.16,SSE,162,4.0,8.0,69,0.00,,,0.00,,2013-11-29 17:43:00,
2013-11-29 12:52:00,53.0,42.0,30.15,South,175,3.0,10.0,67,0.00,,,0.00,,2013-11-29 17:52:00,
2013-11-29 13:11:00,54.0,43.0,30.14,ESE,122,4.0,10.0,66,0.00,,,0.00,,2013-11-29 18:11:00,
2013-11-29 13:22:00,54.0,41.0,30.14,South,171,4.0,7.0,61,0.00,,,0.00,,2013-11-29 18:22:00,
2013-11-29 13:33:00,54.0,41.0,30.14,South,171,4.0,7.0,61,0.00,,,0.00,,2013-11-29 18:33:00,
2013-11-29 13:42:00,54.0,41.0,30.14,South,171,4.0,7.0,61,0.00,,,0.00,,2013-11-29 18:42:00,
2013-11-29 13:52:00,55.0,41.0,30.11,South,171,3.0,9.0,59,0.00,,,0.00,,2013-11-29 18:52:00,
2013-11-29 14:11:00,56.0,41.0,30.11,WSW,248,2.0,9.0,56,0.00,,,0.00,,2013-11-29 19:11:00,
2013-11-29 14:21:00,57.0,41.0,30.10,SE,136,4.0,9.0,56,0.00,,,0.00,,2013-11-29 19:21:00,
2013-11-29 14:32:00,57.0,41.0,30.10,SE,136,4.0,9.0,56,0.00,,,0.00,,2013-11-29 19:32:00,
2013-11-29 14:42:00,57.0,41.0,30.10,SE,136,4.0,9.0,56,0.00,,,0.00,,2013-11-29 19:42:00,
2013-11-29 14:52:00,57.0,39.0,30.09,SSW,194,3.0,13.0,50,0.00,,,0.00,,2013-11-29 19:52:00,
2013-11-29 15:11:00,57.0,37.0,30.07,ESE,105,3.0,9.0,47,0.00,,,0.00,,2013-11-29 20:11:00,
2013-11-29 15:22:00,57.0,36.0,30.07,ESE,107,5.0,11.0,45,0.00,,,0.00,,2013-11-29 20:22:00,
2013-11-29 15:42:00,58.0,37.0,30.06,ESE,121,5.0,11.0,45,0.00,,,0.00,,2013-11-29 20:42:00,
2013-11-29 15:52:00,57.0,38.0,30.05,ESE,102,4.0,12.0,48,0.00,,,0.00,,2013-11-29 20:52:00,
2013-11-29 16:12:00,58.0,37.0,30.04,SSE,163,4.0,10.0,45,0.00,,,0.00,,2013-11-29 21:12:00,
2013-11-29 16:22:00,57.0,36.0,30.04,SSE,167,4.0,12.0,46,0.00,,,0.00,,2013-11-29 21:22:00,
2013-11-29 16:43:00,58.0,38.0,30.03,South,173,2.0,11.0,47,0.00,,,0.00,,2013-11-29 21:43:00,
2013-11-29 16:53:00,57.0,40.0,30.03,ESE,118,5.0,11.0,52,0.00,,,0.00,,2013-11-29 21:53:00,
2013-11-29 17:13:00,56.0,39.0,30.02,ESE,114,5.0,12.0,53,0.00,,,0.00,,2013-11-29 22:13:00,
2013-11-29 17:23:00,56.0,39.0,30.02,SSE,148,3.0,12.0,53,0.00,,,0.00,,2013-11-29 22:23:00,
2013-11-29 17:42:00,56.0,39.0,30.03,SE,139,3.0,9.0,53,0.00,,,0.00,,2013-11-29 22:42:00,
2013-11-29 17:52:00,56.0,40.0,30.03,ESE,117,4.0,11.0,54,0.00,,,0.00,,2013-11-29 22:52:00,
2013-11-29 18:12:00,55.0,39.0,30.02,SE,128,5.0,11.0,54,0.00,,,0.00,,2013-11-29 23:12:00,
2013-11-29 18:22:00,54.0,38.0,30.02,SE,126,4.0,10.0,55,0.00,,,0.00,,2013-11-29 23:22:00,
2013-11-29 18:42:00,54.0,39.0,30.02,SE,142,4.0,9.0,56,0.00,,,0.00,,2013-11-29 23:42:00,
2013-11-29 18:52:00,53.0,38.0,30.02,ESE,121,2.0,6.0,57,0.00,,,0.00,,2013-11-29 23:52:00,
2013-11-29 19:11:00,52.0,38.0,30.02,SE,126,2.0,5.0,58,0.00,,,0.00,,2013-11-30 00:11:00,
2013-11-29 19:21:00,51.0,38.0,30.01,SE,130,2.0,5.0,61,0.00,,,0.00,,2013-11-30 00:21:00,
2013-11-29 19:42:00,50.0,38.0,30.02,SE,128,2.0,4.0,63,0.00,,,0.00,,2013-11-30 00:42:00,
2013-11-29 19:52:00,49.0,37.0,30.02,ESE,116,2.0,5.0,64,0.00,,,0.00,,2013-11-30 00:52:00,
2013-11-29 20:11:00,49.0,38.0,30.02,ESE,121,2.0,4.0,66,0.00,,,0.00,,2013-11-30 01:11:00,
2013-11-29 20:21:00,48.0,38.0,30.03,ESE,120,0.0,3.0,67,0.00,,,0.00,,2013-11-30 01:21:00,
2013-11-29 20:42:00,47.0,37.0,30.03,ESE,120,0.0,1.0,68,0.00,,,0.00,,2013-11-30 01:42:00,
2013-11-29 20:52:00,46.0,37.0,30.03,ESE,120,0.0,1.0,71,0.00,,,0.00,,2013-11-30 01:52:00,
2013-11-29 21:22:00,45.0,37.0,30.02,SE,128,1.0,4.0,73,0.00,,,0.00,,2013-11-30 02:22:00,
2013-11-29 21:42:00,45.0,37.0,30.03,SE,145,1.0,4.0,73,0.00,,,0.00,,2013-11-30 02:42:00,
2013-11-29 21:52:00,45.0,37.0,30.03,SE,135,1.0,3.0,74,0.00,,,0.00,,2013-11-30 02:52:00,
2013-11-29 22:11:00,45.0,37.0,30.03,SE,131,1.0,5.0,74,0.00,,,0.00,,2013-11-30 03:11:00,
2013-11-29 22:22:00,45.0,37.0,30.03,SE,146,0.0,4.0,74,0.00,,,0.00,,2013-11-30 03:22:00,
2013-11-29 22:43:00,45.0,37.0,30.02,SE,140,0.0,4.0,74,0.00,,,0.00,,2013-11-30 03:43:00,
2013-11-29 22:53:00,44.0,37.0,30.02,SE,134,0.0,3.0,75,0.00,,,0.00,,2013-11-30 03:53:00,
2013-11-29 23:13:00,43.0,36.0,30.02,SE,134,0.0,1.0,76,0.00,,,0.00,,2013-11-30 04:13:00,
2013-11-29 23:23:00,42.0,36.0,30.03,SE,134,0.0,1.0,78,0.00,,,0.00,,2013-11-30 04:23:00,
2013-11-29 23:43:00,42.0,36.0,30.03,SE,134,0.0,0.0,80,0.00,,,0.00,,2013-11-30 04:43:00,
2013-11-29 23:53:00,42.0,36.0,30.03,SE,134,0.0,0.0,80,0.00,,,0.00,,2013-11-30 04:53:00,